[[{"header":{"parameterUnit":"m.s-1","parameterCategory":1,"la1":30.2991,"la2":30.254,"lo1":-89.0895,"lo2":-89.0444,"dy":0.0017,"dx":0.0017,"nx":28,"ny":28,"refTime":"2023-10-12T09:00:00:Z","depth":0,"parameterNumber":2,"parameterNumberName":"U-component_of_WINDS"},"data":[0,0,0,0,0,0,0,0,0,0,0,0,0,0,0,0,0,0,0,0,0,0,0,0,0,0,0,0,0,0,0,0,0,0,0,0,0,0,0,0,0,0,0,0,0,0,0,0,0,0,0,0,0,0,0,0,0,0,-1.1105,-1.1106,0,-1.1192,-1.1193,-1.1194,-1.1179,-1.1178,-1.1176,-1.1175,-1.1266,-1.127,-1.1274,0,0,0,0,0,0,0,0,0,0,0,0,0,-1.0928,-1.0931,-1.1105,-1.1106,-1.1107,-1.1192,-1.1193,-1.1194,-1.118,-1.1178,-1.1176,-1.1174,-1.1265,-1.127,-1.1274,0,0,0,0,0,0,0,0,0,0,0,0,0,-1.1009,-1.0932,-1.1105,-1.111,-1.1111,-1.1192,-1.1193,-1.1195,-1.118,-1.1178,-1.1175,-1.1173,-1.1264,-1.1269,-1.1275,-1.1356,0,0,-1.1293,-1.1295,0,0,0,0,0,0,0,0,-1.1004,-1.1015,-1.1108,-1.111,-1.1111,-1.1172,-1.1164,-1.1249,-1.118,-1.1154,-1.1175,-1.1172,-1.1237,-1.1245,-1.1266,-1.1361,-1.1365,-1.1293,-1.1297,-1.1299,-1.1301,0,0,0,0,0,0,0,-1.0998,-1.1011,-1.1139,-1.1109,-1.1111,-1.1108,-1.1117,-1.118,-1.1207,-1.1156,-1.1155,-1.1166,-1.1238,-1.1261,-1.1268,-1.1366,-1.1293,-1.1298,-1.1302,-1.1304,-1.1531,-1.1534,0,0,0,0,0,0,-1.0991,-1.1007,-1.1137,-1.1142,-1.1051,-1.1113,-1.1123,-1.1155,-1.1207,-1.1212,-1.1167,-1.1165,-1.1252,-1.1262,-1.1272,-1.137,-1.1299,-1.1304,-1.1308,-1.1529,-1.1532,-1.1535,0,0,0,0,0,0,-1.0987,-1.1003,-1.1133,-1.1074,-1.1091,-1.1119,-1.1155,-1.1158,-1.1181,-1.1215,-1.122,-1.1186,-1.1251,-1.1263,-1.1335,-1.1373,-1.1307,-1.1312,-1.1526,-1.153,-1.1533,-1.1569,0,0,0,0,0,0,-1.0982,-1.1001,-1.1032,-1.1075,-1.1094,-1.1195,-1.1157,-1.1161,-1.1191,-1.1188,-1.1234,-1.1239,-1.125,-1.1327,-1.1341,-1.138,-1.1317,-1.1522,-1.1527,-1.1532,-1.1565,-1.1574,-1.1581,0,0,0,0,0,-1.0976,-1.104,-1.1034,-1.105,-1.1133,-1.1197,-1.1208,-1.1218,-1.1194,-1.1226,-1.1247,-1.1238,-1.1367,-1.1334,-1.135,-1.1392,-1.152,-1.1526,-1.1532,-1.1561,-1.1572,-1.1581,0,0,0,0,0,0,-1.1002,-1.1045,-1.104,-1.1119,-1.1154,-1.1195,-1.1235,-1.1229,-1.1273,-1.1269,-1.128,-1.129,-1.1363,-1.1384,-1.1347,-1.1473,-1.144,-1.1449,-1.1457,-1.1468,-1.1476,-1.147,-1.1322,0,0,0,0,0,-1.1017,-1.1065,-1.11,-1.1167,-1.1184,-1.1207,-1.1235,-1.1239,-1.1277,-1.1292,-1.1319,-1.1357,-1.1405,-1.1437,-1.1484,-1.1567,-1.1577,-1.1603,-1.1612,-1.1618,-1.1627,-1.1672,-1.1684,-1.1554,-1.1553,-1.1553,0,0,-1.1048,-1.1078,-1.1108,-1.1173,-1.1201,-1.1251,-1.1219,-1.1274,-1.1311,-1.1301,-1.137,-1.1391,-1.1433,-1.1511,-1.1547,-1.1531,-1.1665,-1.1626,-1.1631,-1.1636,-1.1679,-1.1692,-1.1703,-1.1557,-1.1557,-1.1556,0,0,-1.1131,-1.1158,-1.1216,-1.1245,-1.1287,-1.1301,-1.1315,-1.1356,-1.1369,-1.1439,-1.1432,-1.1476,-1.156,-1.1591,-1.1617,-1.171,-1.1704,-1.1725,-1.177,-1.1814,-1.1824,-1.1833,-1.1867,-1.1879,-1.1733,-1.1733,-1.1733,0,-1.1165,-1.124,-1.1247,-1.1302,-1.1331,-1.1322,-1.1382,-1.1409,-1.1465,-1.1486,-1.1467,-1.1572,-1.16,-1.1684,-1.1707,-1.1728,-1.1745,-1.1721,-1.1822,-1.1831,-1.184,-1.1872,-1.1885,-1.1736,-1.1735,-1.1735,-1.1735,0,-1.128,-1.1331,-1.1373,-1.1426,-1.146,-1.1517,-1.1534,-1.1567,-1.1568,-1.1584,-1.1655,-1.1687,-1.1741,-1.1761,-1.1763,-1.1846,-1.1835,-1.1819,-1.1786,-1.1855,-1.1885,-1.1898,-1.1739,-1.1738,-1.1737,-1.1737,0,0,-1.1383,-1.1438,-1.1454,-1.1478,-1.1523,-1.1564,-1.162,-1.1671,-1.17,-1.1738,-1.1786,-1.1856,-1.1842,-1.1872,-1.1877,-1.1916,-1.1988,-1.1895,-1.1896,-1.1912,-1.2082,-1.2094,-1.2108,-1.1983,-1.1985,-1.1987,-1.2078,0,-1.1471,-1.157,-1.1578,-1.1667,-1.1715,-1.1707,-1.1756,-1.179,-1.1806,-1.1849,-1.1867,-1.1917,-1.1894,-1.1912,-1.195,-1.1971,-1.2022,-1.1964,-1.2028,-1.2031,-1.2019,-1.2124,-1.2138,-1.2222,-1.209,-1.2092,-1.2094,0,-1.1587,-1.1628,-1.1722,-1.176,-1.178,-1.1824,-1.1872,-1.1913,-1.1951,-1.196,-1.1993,-1.1992,-1.2051,-1.2015,-1.2096,-1.2056,-1.2083,-1.2097,-1.21,-1.2108,-1.2067,-1.2135,-1.225,-1.2263,-1.2113,-1.2111,-1.211,0,-1.1654,-1.1732,-1.1798,-1.1819,-1.1865,-1.1896,-1.1917,-1.1952,-1.1982,-1.2024,-1.2043,-1.2091,-1.2118,-1.2155,-1.2168,-1.214,-1.2248,-1.2213,-1.2258,-1.2258,-1.2283,-1.2281,-1.2404,-1.2298,-1.2298,-1.2298,-1.2297,0,-1.1752,-1.181,-1.1829,-1.187,-1.1935,-1.1943,-1.2007,-1.2026,-1.2057,-1.2102,-1.2098,-1.214,-1.2154,-1.2199,-1.2209,-1.2275,-1.2287,-1.2296,-1.2299,-1.2297,-1.2296,-1.2316,-1.2311,-1.2301,-1.23,-1.2299,-1.2299,0,-1.1838,-1.1853,-1.1925,-1.1962,-1.1973,-1.2019,-1.2051,-1.2091,-1.2105,-1.2162,-1.2176,-1.22,-1.2252,-1.2268,-1.2331,-1.2338,-1.2415,-1.2412,-1.2403,-1.2403,-1.2447,-1.2443,-1.2588,-1.2607,-1.2488,-1.2489,-1.249,0,-1.19,-1.1944,-1.1986,-1.2015,-1.2037,-1.2084,-1.2114,-1.2124,-1.2156,-1.2202,-1.2236,-1.2287,-1.2329,-1.2413,-1.2437,-1.2485,-1.2483,-1.253,-1.2491,-1.2488,-1.2485,-1.2483,-1.2487,-1.2538,-1.254,-1.2541,-1.2542,0,-1.2008,-1.2013,-1.2057,-1.2103,-1.2139,-1.2176,-1.2212,-1.2236,-1.2251,-1.2287,-1.234,-1.2372,-1.2436,-1.2488,-1.2536,-1.2558,-1.2553,-1.2554,-1.2567,-1.2567,-1.256,-1.2565,-1.2424,-1.2551,-1.255,-1.2549,-1.2549,-1.2548,-1.2085,-1.2124,-1.2159,-1.2208,-1.2235,-1.2268,-1.2307,-1.2326,-1.237,-1.2423,-1.2426,-1.2483,-1.2519,-1.2584,-1.2609,-1.2654,-1.2641,-1.2659,-1.2664,-1.2669,-1.2673,-1.2551,-1.2663,-1.2663,-1.2663,-1.2662,-1.2662,0,-1.2194,-1.2216,-1.226,-1.231,-1.2348,-1.2338,-1.2376,-1.2409,-1.246,-1.2493,-1.2534,-1.2595,-1.2645,-1.2671,-1.2721,-1.2752,-1.2751,-1.2765,-1.2763,-1.2768,-1.2682,-1.2666,-1.2765,-1.2765,-1.2765,-1.2765,-1.2765,-1.2765,-1.2255,-1.2321,-1.233,-1.2409,-1.243,-1.2486,-1.2509,-1.2539,-1.2566,-1.2634,-1.2675,-1.2692,-1.2723,-1.2774,-1.2819,-1.2826,-1.2845,-1.2861,-1.2866,-1.2785,-1.2774,-1.2765,-1.275,-1.2864,-1.2864,-1.2948,-1.2949,-1.295]},{"header":{"parameterUnit":"m.s-1","parameterCategory":1,"la1":30.2991,"la2":30.254,"lo1":-89.0895,"lo2":-89.0444,"dy":0.0017,"dx":0.0017,"nx":28,"ny":28,"refTime":"2023-10-12T09:00:00:Z","depth":0,"parameterNumber":3,"parameterNumberName":"V-component_of_WINDS"},"data":[0,0,0,0,0,0,0,0,0,0,0,0,0,0,0,0,0,0,0,0,0,0,0,0,0,0,0,0,0,0,0,0,0,0,0,0,0,0,0,0,0,0,0,0,0,0,0,0,0,0,0,0,0,0,0,0,0,0,-4.6895,-4.6895,0,-4.6936,-4.6937,-4.6937,-4.6866,-4.6864,-4.6861,-4.6859,-4.6898,-4.6901,-4.6904,0,0,0,0,0,0,0,0,0,0,0,0,0,-4.6751,-4.6754,-4.6895,-4.6895,-4.6896,-4.6936,-4.6937,-4.6937,-4.6866,-4.6864,-4.6861,-4.6858,-4.6897,-4.6901,-4.6905,0,0,0,0,0,0,0,0,0,0,0,0,0,-4.6805,-4.6755,-4.6895,-4.6866,-4.6863,-4.6936,-4.6937,-4.6937,-4.6867,-4.6863,-4.686,-4.6857,-4.6895,-4.69,-4.6905,-4.7007,0,0,-4.692,-4.6922,0,0,0,0,0,0,0,0,-4.6802,-4.681,-4.6869,-4.6868,-4.6865,-4.6892,-4.69,-4.6961,-4.6868,-4.6866,-4.6859,-4.6855,-4.6899,-4.6903,-4.6919,-4.7009,-4.7011,-4.692,-4.6923,-4.6926,-4.6927,0,0,0,0,0,0,0,-4.6798,-4.6808,-4.6911,-4.687,-4.6868,-4.6849,-4.6853,-4.6911,-4.6902,-4.6865,-4.686,-4.6866,-4.6897,-4.6914,-4.6919,-4.7011,-4.692,-4.6925,-4.6928,-4.693,-4.7186,-4.719,0,0,0,0,0,0,-4.6798,-4.6805,-4.691,-4.6912,-4.6824,-4.6855,-4.6859,-4.6887,-4.6901,-4.69,-4.687,-4.6863,-4.6907,-4.6913,-4.692,-4.704,-4.6925,-4.693,-4.6933,-4.7182,-4.7187,-4.7191,0,0,0,0,0,0,-4.6796,-4.6809,-4.6908,-4.6857,-4.6869,-4.6861,-4.6894,-4.689,-4.6907,-4.6904,-4.6901,-4.6889,-4.6905,-4.6913,-4.6986,-4.704,-4.6932,-4.6937,-4.7178,-4.7184,-4.7189,-4.7281,0,0,0,0,0,0,-4.6792,-4.6808,-4.6848,-4.6859,-4.6872,-4.6975,-4.6897,-4.6893,-4.6916,-4.6908,-4.6922,-4.692,-4.6903,-4.6979,-4.6991,-4.7045,-4.6941,-4.7173,-4.718,-4.7187,-4.7273,-4.7289,-4.7303,0,0,0,0,0,-4.6787,-4.6871,-4.685,-4.6863,-4.6922,-4.6978,-4.6985,-4.6964,-4.6921,-4.696,-4.6958,-4.692,-4.7032,-4.6987,-4.7,-4.7056,-4.7169,-4.7178,-4.7187,-4.7266,-4.7286,-4.7303,0,0,0,0,0,0,-4.6866,-4.6872,-4.6849,-4.694,-4.6959,-4.6966,-4.7015,-4.6986,-4.7017,-4.7008,-4.6979,-4.6983,-4.7061,-4.7066,-4.7015,-4.7155,-4.7093,-4.7105,-4.715,-4.7168,-4.7183,-4.718,-4.6945,0,0,0,0,0,-4.6894,-4.6941,-4.6943,-4.7023,-4.7034,-4.7023,-4.7047,-4.7029,-4.7048,-4.7055,-4.7058,-4.7076,-4.7115,-4.7142,-4.7178,-4.7273,-4.7274,-4.7318,-4.7333,-4.7345,-4.7356,-4.7405,-4.7425,-4.722,-4.722,-4.7219,0,0,-4.6952,-4.6961,-4.6993,-4.7039,-4.7052,-4.71,-4.7031,-4.7084,-4.7119,-4.7063,-4.7132,-4.7135,-4.7153,-4.7238,-4.7275,-4.7244,-4.7413,-4.7356,-4.7366,-4.737,-4.7416,-4.7436,-4.7453,-4.7226,-4.7225,-4.7224,0,0,-4.7082,-4.7095,-4.7162,-4.7177,-4.7198,-4.719,-4.7206,-4.7218,-4.7218,-4.7287,-4.7245,-4.7285,-4.7354,-4.7369,-4.7385,-4.7521,-4.7487,-4.7533,-4.7611,-4.766,-4.7676,-4.769,-4.7738,-4.7756,-4.7543,-4.7544,-4.7544,0,-4.7152,-4.7224,-4.72,-4.7257,-4.7278,-4.7231,-4.7298,-4.7313,-4.7344,-4.7359,-4.7324,-4.7409,-4.7418,-4.7504,-4.7537,-4.7552,-4.7569,-4.7531,-4.7676,-4.769,-4.7703,-4.7748,-4.7766,-4.7549,-4.7548,-4.7548,-4.7547,0,-4.7307,-4.7358,-4.741,-4.7442,-4.7469,-4.7531,-4.7516,-4.7545,-4.7525,-4.752,-4.7591,-4.76,-4.7637,-4.7656,-4.7636,-4.774,-4.772,-4.7681,-4.7618,-4.7728,-4.777,-4.7787,-4.7557,-4.7555,-4.7553,-4.7552,0,0,-4.7489,-4.7508,-4.7527,-4.7541,-4.756,-4.7598,-4.7657,-4.7694,-4.772,-4.7742,-4.779,-4.7849,-4.7813,-4.7832,-4.7813,-4.7856,-4.7962,-4.7812,-4.7812,-4.7839,-4.8076,-4.8105,-4.8125,-4.794,-4.7943,-4.7945,-4.8074,0,-4.7619,-4.7722,-4.7702,-4.7802,-4.7848,-4.7803,-4.7854,-4.787,-4.7867,-4.7904,-4.79,-4.7942,-4.7892,-4.7903,-4.7944,-4.7941,-4.8009,-4.7931,-4.7983,-4.7985,-4.798,-4.8147,-4.8178,-4.8299,-4.809,-4.8093,-4.8095,0,-4.7784,-4.7814,-4.7919,-4.793,-4.7948,-4.7995,-4.8027,-4.8063,-4.808,-4.8075,-4.8096,-4.8069,-4.8126,-4.8063,-4.814,-4.8088,-4.8107,-4.8109,-4.8113,-4.8117,-4.8047,-4.8155,-4.8338,-4.8356,-4.8121,-4.8119,-4.8117,0,-4.7905,-4.7972,-4.8043,-4.8056,-4.8071,-4.8105,-4.8113,-4.8126,-4.815,-4.8177,-4.8191,-4.8225,-4.8243,-4.8269,-4.8251,-4.8207,-4.8331,-4.8267,-4.8327,-4.8328,-4.8356,-4.8354,-4.8544,-4.8369,-4.8369,-4.8369,-4.8368,0,-4.8052,-4.8118,-4.8098,-4.8142,-4.8214,-4.819,-4.8261,-4.8263,-4.8276,-4.8318,-4.8281,-4.8321,-4.8295,-4.8333,-4.8319,-4.8385,-4.8393,-4.839,-4.8385,-4.8393,-4.8394,-4.8406,-4.8397,-4.8373,-4.8372,-4.8371,-4.8371,0,-4.82,-4.8189,-4.8264,-4.8272,-4.8276,-4.8328,-4.8335,-4.8375,-4.8369,-4.8423,-4.8434,-4.8424,-4.8467,-4.8452,-4.8497,-4.8487,-4.8571,-4.8556,-4.8566,-4.8562,-4.8624,-4.8618,-4.8827,-4.8853,-4.8662,-4.8664,-4.8666,0,-4.8294,-4.8344,-4.8358,-4.8384,-4.8395,-4.8437,-4.8461,-4.8439,-4.8465,-4.8488,-4.8525,-4.8565,-4.8595,-4.8665,-4.8661,-4.8695,-4.868,-4.8751,-4.8684,-4.8691,-4.868,-4.8678,-4.8682,-4.8764,-4.8766,-4.8768,-4.8769,0,-4.8462,-4.8455,-4.8491,-4.8526,-4.8555,-4.8581,-4.8603,-4.8627,-4.8606,-4.8637,-4.868,-4.8704,-4.875,-4.8789,-4.882,-4.8826,-4.8794,-4.879,-4.8806,-4.8814,-4.8818,-4.8817,-4.8602,-4.8785,-4.8784,-4.8783,-4.8782,-4.8781,-4.8586,-4.8628,-4.8644,-4.8686,-4.87,-4.8722,-4.876,-4.8759,-4.8796,-4.8832,-4.8816,-4.8867,-4.8881,-4.8919,-4.8929,-4.8967,-4.894,-4.8963,-4.8968,-4.8975,-4.8982,-4.8813,-4.8973,-4.8972,-4.8972,-4.8971,-4.8971,0,-4.8752,-4.876,-4.8799,-4.8832,-4.8864,-4.8832,-4.8855,-4.8884,-4.8929,-4.8946,-4.8977,-4.9026,-4.9064,-4.9063,-4.9098,-4.9128,-4.9114,-4.9138,-4.9135,-4.9137,-4.9005,-4.8988,-4.9148,-4.9148,-4.9148,-4.9148,-4.9148,-4.9148,-4.8842,-4.8911,-4.8906,-4.8981,-4.8988,-4.9038,-4.9054,-4.9073,-4.9086,-4.9144,-4.9175,-4.9175,-4.9184,-4.9219,-4.9252,-4.925,-4.9265,-4.9294,-4.9287,-4.9164,-4.9146,-4.913,-4.9113,-4.9297,-4.9297,-4.9416,-4.9417,-4.9418]}]]